TimeCST,TemperatureF,Dew PointF,Humidity,Sea Level PressureIn,VisibilityMPH,Wind Direction,Wind SpeedMPH,Gust SpeedMPH,PrecipitationIn,Events,Conditions,WindDirDegrees,DateUTC
12:53 AM,27.0,21.0,78,30.21,10.0,West,6.9,-,N/A,,Clear,280,2013-01-06 06:53:00
1:53 AM,28.0,21.0,75,30.22,10.0,NW,10.4,-,N/A,,Clear,310,2013-01-06 07:53:00
2:53 AM,27.0,19.9,75,30.25,10.0,NW,12.7,-,N/A,,Clear,320,2013-01-06 08:53:00
3:53 AM,25.0,19.0,78,30.27,10.0,NW,10.4,-,N/A,,Clear,310,2013-01-06 09:53:00
4:53 AM,24.1,18.0,77,30.29,10.0,NW,11.5,20.7,N/A,,Clear,310,2013-01-06 10:53:00
5:27 AM,24.8,17.6,74,30.27,8.0,NW,13.8,-,N/A,,Mostly Cloudy,310,2013-01-06 11:27:00
5:48 AM,21.2,17.6,86,30.29,8.0,NNW,13.8,-,N/A,,Scattered Clouds,330,2013-01-06 11:48:00
5:53 AM,21.9,17.1,82,30.32,8.0,NNW,16.1,-,N/A,,Scattered Clouds,330,2013-01-06 11:53:00
6:35 AM,21.2,15.8,80,30.31,8.0,NNW,13.8,-,N/A,,Mostly Cloudy,330,2013-01-06 12:35:00
6:53 AM,21.0,16.0,81,30.35,8.0,NW,15.0,-,N/A,,Overcast,310,2013-01-06 12:53:00
7:53 AM,21.0,16.0,81,30.37,6.0,WNW,6.9,-,N/A,,Haze,300,2013-01-06 13:53:00
8:26 AM,21.2,17.6,86,30.34,7.0,WNW,4.6,-,N/A,,Scattered Clouds,290,2013-01-06 14:26:00
8:53 AM,21.9,18.0,85,30.39,7.0,West,8.1,-,N/A,,Clear,280,2013-01-06 14:53:00
9:53 AM,25.0,18.0,75,30.41,9.0,West,8.1,-,N/A,,Clear,280,2013-01-06 15:53:00
10:53 AM,27.0,19.0,72,30.42,10.0,West,9.2,-,N/A,,Clear,280,2013-01-06 16:53:00
11:53 AM,30.9,21.0,67,30.41,10.0,WNW,9.2,-,N/A,,Clear,290,2013-01-06 17:53:00
12:53 PM,34.0,21.0,59,30.38,10.0,West,4.6,-,N/A,,Clear,270,2013-01-06 18:53:00
1:53 PM,36.0,19.9,52,30.36,10.0,Variable,5.8,-,N/A,,Clear,0,2013-01-06 19:53:00
3:53 PM,37.9,19.9,48,30.35,9.0,SSW,4.6,-,N/A,,Clear,200,2013-01-06 21:53:00
4:53 PM,36.0,19.9,52,30.34,10.0,SSW,4.6,-,N/A,,Clear,210,2013-01-06 22:53:00
5:53 PM,30.0,19.9,66,30.36,10.0,South,3.5,-,N/A,,Clear,180,2013-01-06 23:53:00
6:53 PM,30.0,19.0,64,30.36,10.0,SSE,4.6,-,N/A,,Clear,150,2013-01-07 00:53:00
7:53 PM,28.0,18.0,66,30.35,10.0,SSE,6.9,-,N/A,,Clear,160,2013-01-07 01:53:00
9:53 PM,26.1,18.0,71,30.34,10.0,South,8.1,-,N/A,,Clear,170,2013-01-07 03:53:00
10:53 PM,27.0,19.0,72,30.33,10.0,South,8.1,-,N/A,,Clear,170,2013-01-07 04:53:00
11:53 PM,28.0,19.9,72,30.32,10.0,South,9.2,-,N/A,,Clear,180,2013-01-07 05:53:00